[心得] Swift Sport 手排苦手開箱

看板 Car
作者
時間
留言 86則留言,52人參與討論
推噓 47  ( 47推 0噓 39→ )
Swift Sport真的很香 目前里程500已先換過一次機油後才上山試一下整體 動態及動力(全程關閉ESP) 先說缺點,底盤噪音很大,但做底盤隔音應可改善 本人身高178,體重74,原廠椅子我感到非常舒適 坐上後第一印象是覺得椅子太高 但沒想到這樣開了一個半小時山路發覺很棒 大腿下方及兩側支撐性很夠,軀幹左右包覆性很剛好 動力方面本來以為1.4T掛輕油電應該不怎麼樣 (自己有另一台SH9換滾珠TD05 18G+鍛引擎,增壓打1.4) (上上週剛開過一台SG9 STI跑山) 結果沒想到馬達開始輔助居然這麼有感 雖然是輕油電但加速性配上這麼輕的車重是很夠用的 (以純跑山來說,且因為里程才500所以全程轉速都沒超過4千) 避震、煞車原廠的搭配協調性非常棒,非常的平衡 坐副駕時感覺避震稍軟一點,但實際駕駛時發覺側頃及回彈 是會給你非常有信心的,彎中遇到坑洞也能處理的很棒 嘗試在進彎前就開始補油門丟進去以及在彎中補油或輕點煞車控 制車身動態這些動作來測試原廠配胎、避震協調性 我的感受是完全海放SH9,雖然SH9是AWD可是Swift Sport 進彎、彎中、出彎時的屁股真的好香,輪胎側滑時用油門或煞車 來控制動態都非常輕鬆 彎中開始漂時車頭還是可以很輕鬆對準想要跑的路線直直駛過去 原廠煞車很線性,也非常夠用,整趟山路近150公里在操都無 熱衰竭感 本來預計是車來就要去換來令、煞車油、胎 沒想到全原廠就這麼好玩這麼好開又非常容易上手 而且非常省油,這趟總共跑了201公里只耗了14.7公升油 離合器也很輕跟STI以及SG9 STI比較起來輕鬆超多 而且檔位也很好入,另外高檔位低速滑行可能因為有馬達在吃負載 所以也不會頓銼(紅燈前4檔時速滑到剩20公里也不會頓) 最後附上行車記錄剪輯片段給大家 https://youtu.be/ejC563gpPHU
-- ☑沒錢☑沒車☑沒房☑閃光。 --
※ 發信站: 批踢踢實業坊(ptt.cc), 來自: 218.161.58.153 (臺灣) ※ 文章網址: https://www.ptt.cc/bbs/car/M.1611474318.A.579.html
1Fbodoyo: 想請問手排+ACC好用嗎? 01/24 15:47
2Fbodoyo: 但塞車應該也是一樣累 01/24 15:47
3Fx3981: 我還沒機會用到ACC XD 01/24 15:48
4FPsMonkey: 差點看成山路開 150km/hr XD 01/24 15:49
5Fs880036: 第一批不是說只有40台嗎?原PO居然搶到了 01/24 15:54
6Fx3981: 1月14號訂車,21晚就交車了,也不知為啥都說要等?? 01/24 15:59
7Fblake7899: 心得都是好評 為什麼標題要打苦主啊 01/24 16:00
8Fgood5755: 手排ACC只能減速不能加速吧 有點可怕 01/24 16:01
9Fx3981: 不是阿,我不會開手排阿所以是手排苦主阿Q_Q 練習中 01/24 16:01
10Forange22: 這麽快拿到車 業務手上剛好有車嗎? 01/24 16:01
11Fx3981: 應該是沒錯,另外手排ACC為何不能加速?? 01/24 16:02
12FAIRWAY1021: 手排ACC在加速時會有提示要升檔,哪聽來不會加速? 01/24 16:11
13Fgx9900824: 手排飆仔 過彎不吃線又順暢 給推 01/24 16:12
14Fgx9900824: ACC升降檔都會提示啦 01/24 16:13
15Frfvujm: 不是啊 苦主不是這樣用的... 01/24 16:13
16Fbbbspttt: 苦手才對啦 01/24 16:14
17Fx3981: 黑啦 苦手啦 哈哈 我改一下好惹 01/24 16:16
18FDarkMaple: 百萬內手排車無敵 01/24 16:30
19Fjoe0934: 201公升14.7這油耗真的不行 01/24 16:30
20FJOHNYOUNG520: 才在沁寶的fb看到你在說這台好開 馬上就看到你打 01/24 16:33
21FJOHNYOUNG520: 心得文了 哈哈 01/24 16:33
22Fge9487: 輕油電真香 01/24 16:37
23Fx3981: 真的很好開,交車兩天又有三個朋友被毒到下訂 01/24 16:40
24Fx3981: 一個開STI 一個開最速自排SG9 一個開TYPE R的 01/24 16:40
25Ftakeda0727: 推心得 如果一般版的保留1.0+渦輪就好了 01/24 16:42
26FPolyC11H20: 連統哥都下定了,這台真的不錯 01/24 16:44
27Fblake7899: 不是說配額很少? 01/24 16:49
28Fcasio0406: 不用後製Bgm阿!!我想聽車子的聲音 01/24 16:53
29Fx3981: 呃.車內只有胎噪哄哄哄的聲音而已 而且本來就關MIC 01/24 16:54
30Fx3981: 上半部車子隔音很棒,就是底盤隔音不行 01/24 16:55
31FPsMonkey: 有在催油門的話 200km 吃 14.7L 還不錯了吧? 01/24 17:04
32Fx3981: 鍵盤車手我是不理會,可能都1500轉就換檔的 我SH9照 01/24 17:07
33Fx3981: 今天路線速度跑的話大概只有5KM/L而已 01/24 17:08
34Fwindowdoor: 前500公里而已 油耗不好很正常吧 01/24 17:14
35Fx3981: 跑山是一直在加減速,這油耗非常香了 又不是開高速 01/24 17:16
36Fjamestan2: 未來保值王 01/24 17:17
37FN48212: 神車 01/24 17:22
38Flancelot123: 看小施買一台來測,指出缺點是因馬達只介入3秒,加 01/24 17:24
39Flancelot123: 速後續軟掉沒有延展性,然後排氣管聲浪太差不夠熱血 01/24 17:24
40Flancelot123: ,原po有沒有這種感受? 01/24 17:24
其實我原文有提到,這馬力配這車重真的非常棒 不能拿現在的鋼炮馬力來比,以中速域時速60-150山路上的表現我 認為150萬內沒有原廠未改的車可以跟他打,台3那種高速路線肯定 馬力是不足的 以中部谷關、天冷、131、136這種中速域光是車重優勢就能屌打一堆車 山路上馬力大不一定是贏家,車子的整體協調平衡性才更重要 另外我比較喜歡車子安靜一點,所以排氣管我是能接受 車內基本上聽到只有引擎聲沒有排氣管聲 車外我沒聽過我就恩災了
41Fkazami: 羨慕~ 01/24 17:31
42FKCFROG: 1/9訂車,不知道何時才能領車的路過... 01/24 17:31
太慘幫QQ,我另外三位朋友也是交期未知
43FMulsanne: 這台很棒啊 有點想買台自排版來玩 01/24 17:38
44Fatlaswhz: 統哥都買了,好車不用懷疑了 01/24 17:40
※ 編輯: x3981 (218.161.58.153 臺灣), 01/24/2021 17:47:42
45FCMLeeptt: 試車為何要關ESP? 01/24 17:57
46Fx3981: 不關ESP跑山還有樂趣嗎0.0..限制多動態做不出來耶 01/24 18:09
47Fmaniaque: 試車就是要探底啊,尬車開 ESP ,不如回家開GTA5 01/24 18:15
48Fayuhb: 手排ACC提示升檔 這樣只要踩離合換檔就好? 油門需 01/24 18:51
49Fayuhb: 要動到嗎? 01/24 18:51
50Flomion: 自排SS車主路過,樓主很知道自己需求,這車在台三 01/24 19:10
51Flomion: 那種中高速路線的確還好,但是136 谷關 拉拉山 台七 01/24 19:10
52Flomion: 那種環境,SS的確跟鬼一樣。 01/24 19:10
真的超讚!
53Fmouz: 羨慕推 01/24 19:27
54Flancelot123: 有趣...136跟天冷想跟尾看看動態 01/24 19:32
55Flancelot123: 這2條路段的某些彎如果不降到很低速,很難完全不吃 01/24 19:34
56Flancelot123: 到對向,想看看短軸距車怎麼過的 01/24 19:34
短軸就有點像隨便開頭過身就過這樣
57Fmorrishh: 讚!出自排我就… 01/24 19:35
58FErnestKou: 買手排就是推 01/24 19:37
59Feklcxo: 讚 01/24 19:42
60FNCTU0894IJK: 好車一台 01/24 20:02
61Frebai: 你的胎壓該不會還停在原廠40吧 01/24 20:15
原廠居然打48!!! 你猜不到吧!! 已經調整回來才開的
62Flomion: 喔對 這車可以不改 不過輪框可以升級 才能配好胎 01/24 20:20
基本上我認為換更好的胎可能會打破這協調性 胎夠避震就會不夠用了,再接著換避震整個會 越用越糟,不過也是要試才知道啦
63FYooooooooo: 手排真香 01/24 20:41
64Fkshs930709: 推一下手排苦手還買手排車來玩 01/24 20:59
65Fben19811: 不會開手排為什麼要買手排? 01/24 21:00
買的是FUNCAR
66Fkshs930709: 應該是指考完駕照以後很少開所以要花時間熟悉吧 01/24 21:06
沒錯,考到駕照後基本上只有在開手排貨車阿 考到駕照後20年來只有前陣子開了SG9STI手排山路 ※ 編輯: x3981 (218.161.58.153 臺灣), 01/24/2021 21:33:51
67Fofkofk: 誰不是剛開始不會開的,一陣子就熟了啦 01/24 21:35
68Fsorkayi: 車輕 山路真的無敵 s2000 mx5 rx7 這種都特猛 subar 01/24 21:47
69Fsorkayi: u awd 就太重了 01/24 21:47
70Frojin: 推 01/24 21:48
71Fcastorfi: 實際駕駛過彎的時候,車子給人的信心的確很有感 01/24 22:11
72Fcastorfi: 一些低速彎在過的時候有夠舒服,車子非常聽話。 01/24 22:12
73Fcastorfi: 不過我在一進二的時候,都有點小小卡卡的感覺, 01/24 22:12
74Fcastorfi: 但三退二就沒有,而且也沒有異音,原po有遇到嗎? 01/24 22:13
這沒注意到,應該沒有卡卡的感覺
75Fmotokare: 有買有推 01/24 22:33
76Fvespar: 推!! 01/24 23:04
77FNumber9527: 真好…… 有時間可以開山路 享受一個人的自由 01/24 23:07
78Fferran: 推一個 01/24 23:12
79FGREATQOO: 反觀1.0 hybrid 討論度好低喔...有人實際拿1.0版本 01/25 00:10
80FGREATQOO: 去跑過嗎? 統哥不算XD 01/25 00:11
81Fshihhsieng: 手排給推 01/25 08:02
※ 編輯: x3981 (122.118.1.16 臺灣), 01/25/2021 08:06:08
82Fa901922001: 想知道拉轉回油會放炮嗎 01/25 09:53
83Fjeff19840619: 森林人就森林人,講SG9誰知道啊。 01/25 14:17
84Fkazami: 借問一下 這台一樣油加98嗎? 01/25 16:59
85Fjeff19840619: 原廠建議95,我都加98 01/25 17:32
86FRandom9: 手排香啊 01/25 23:31

car 最新熱門文章

29 [討論] 高速公路那顆輪胎
85 car 2021-03-01 22:02
15 [問題] 機油問題與請益
26 car 2021-03-01 19:00
36 [問題] XC40/A180/A3 怎麼選?
61 car 2021-03-01 17:09
42 [討論] 被延遲交車
111 car 2021-03-01 17:05
32 [問題] 關於車損求償的問題
135 car 2021-03-01 13:08
26 [分享] rav4 vs kuga (影片)
51 car 2021-03-01 12:58
61 [問車] 請問這是什麼車?
75 car 2021-03-01 12:12
27 [心得] 2021/2/28關西隨手記
41 car 2021-03-01 02:50
22 [問題] 幫電瓶充電的設備
85 car 2021-02-28 23:40
23 [討論] 北宜路寬縮減來限速
80 car 2021-02-28 23:01
50 Re: [閒聊] 我又車禍了
123 car 2021-02-28 19:03